Location: Caltech
(34.1382°N, 118.1253°W)
Time: 09:17:52
(UTC-07:00)

Cosmos 1943 Rocket - Visible Passes

Search period start: 19 October 2017 00:00
Search period end: 29 October 2017 00:00
Orbit: 812 x 844 km, 71.0° (Epoch: 19 October)

Date Brightness Start Highest point End Pass type
(mag) Time Alt. Az. Time Alt. Az. Time Alt. Az.
19 Oct 4.9 03:29:27 11° NE 03:29:27 11° NE 03:29:44 10° NE visible
19 Oct 3.9 05:11:02 17° NNW 05:11:02 17° NNW 05:12:52 10° N visible
20 Oct 4.2 04:52:50 14° N 04:52:50 14° N 04:53:53 10° N visible
21 Oct 4.5 04:34:33 11° N 04:34:33 11° N 04:34:52 10° N visible
